Regional Weather Roundup
Issued by NWS Grand Forks, ND

Home | Current Version | Previous Version | Graphics & Text | Print | Product List | Glossary On
Versions: 1 2 3 4 5 6 7 8 9 10 11 12 13 14 15 16 17 18 19 20 21 22 23 24 25 26 27 28 29 30 31 32 33 34 35 36 37 38 39 40 41 42 43 44 45 46 47 48 49 50
000
ASUS43 KFGF 292010
RWRFGF
PRAIRIE TO PINES  WEATHER ROUNDUP
NATIONAL WEATHER SERVICE EASTERN NORTH DAKOTA/GRAND FORKS ND
300 PM CDT SUN MAY 29 2016

 **SATELLITE DATA USED TO AUGMENT SKY COVER AT AUTOMATED STATIONS**
 *****  WEATHER ACROSS EASTERN NORTH DAKOTA  *****

CITY           SKY/WX    TMP DP  RH WIND       PRES   REMARKS
GRAND FORKS    MOSUNNY   74  52  46 NW10G20   29.92S
GRAND FRKS AFB SUNNY     75  48  38 NW18G25   29.93S
GRAND FRKS NWS   N/A     75 N/A N/A W13         N/A
DEVILS LAKE    MOSUNNY   73  41  31 NW18G26   29.95F
FARGO          SUNNY     77  46  33 W17G25    29.94F
WAHPETON ARPT  CLEAR     75  45  33 NW18G24   29.96F
$$

 ***** WEATHER ACROSS CENTRAL AND WESTERN NORTH DAKOTA  *****

CITY           SKY/WX    TMP DP  RH WIND       PRES   REMARKS
BISMARCK       MOSUNNY   76  43  30 VRB6G17   30.00F
MINOT          MOSUNNY   77  38  24 W14       29.96S
JAMESTOWN      MOSUNNY   73  44  35 W13G25    29.97S
MINOT AFB      SUNNY     73  40  30 W9G18     29.94F
GARRISON         N/A     73  40  30 W8G20     29.98F
WILLISTON      SUNNY     76  35  22 W10G18    29.96F
DICKINSON      MOSUNNY   72  38  29 W8        29.97F
HETTINGER      MOSUNNY   77  41  27 W9        30.01F
$$

 *****  OTHER AIRPORT OBSERVATIONS IN OUR AREA  *****

CITY           SKY/WX    TMP DP  RH WIND       PRES   REMARKS
WALHALLA       FAIR      68  64  88 N9        29.93R
GRAFTON AIRPOR MOCLDY    70  55  60 NW6G13    29.94S
VALLEY CITY AR FAIR      73  45  35 NW16G25   29.99S
CANDO          NOT AVBL
CAVALIER APRT  FAIR      68  55  64 N3        29.92S
GWINNER        FAIR      77  45  31 W14G26    29.98F
ROLLA            N/A     70  37  30 W16G24    29.95S
 ***** THE ABOVE OBSERVATIONS ARE NON NWS ARE NOT QUALITY
       CONTROLLED AND MAY MIS-REPORT RAIN FOR SNOW...
$$

  *****  WEATHER ACROSS NORTHERN MINNESOTA  *****

CITY           SKY/WX    TMP DP  RH WIND       PRES   REMARKS
FLAG ISLAND    PTSUNNY   61  54  77 NW9G17    29.87S
WARROAD        PTSUNNY   64  57  77 W8G16     29.89S
ROSEAU         PTSUNNY   64  57  77 W8        29.90S
HALLOCK        MOSUNNY   70  55  60 NW12      29.91F
THF RVR FALLS  MOSUNNY   66  55  68 W16       29.95S
BAUDETTE       PTSUNNY   65  56  72 W10       29.89F
WASKISH        CLOUDY    63  55  77 W12       29.92S
CROOKSTON      MOSUNNY   70  57  64 NW9       29.94F
STEPHEN NDAWN    N/A     70  57  64 NW9         N/A
GREENBUSH NDAW   N/A     66  59  77 W8          N/A
$$
  *****  WEATHER ACROSS CENTRAL AND WEST MINNESOTA  *****

CITY           SKY/WX    TMP DP  RH WIND       PRES   REMARKS
FOSSTON        MOSUNNY   66  55  68 W9        29.95F
BEMIDJI        MOSUNNY   67  53  62 W14G20    29.94S
PARK RAPIDS    MOSUNNY   72  54  53 W14       29.95S
ELBOW LAKE     FAIR      71  59  66 NW6       29.98F
WADENA         MOSUNNY   72  55  56 NW12      29.96S
DETROIT LAKES  SUNNY     68  54  60 W9        29.98S
MOORHEAD       SUNNY     73  52  46 NW16      29.95F
FERGUS FALLS   SUNNY     75  52  43 NW16G22   29.92F
MORRIS MN      SUNNY     75  57  53 NW13      29.96S
STAPLES        MOSUNNY   72  54  53 NW14      29.95S
$$
  *****  WEATHER ELSEWHERE ACROSS MINNESOTA  *****

CITY           SKY/WX    TMP DP  RH WIND       PRES   REMARKS
DULUTH         PTSUNNY   66  54  65 NW16G25   29.88S
INTRNTL FALLS  CLOUDY    61  54  77 W15       29.88R
ELY            LGT RAIN  59  55  88 W10G20    29.86R
CLOQUET        CLOUDY    68  54  60 W14G21    29.90R
WHEATON        SUNNY     79  48  34 NW18G28   29.99R
BRAINERD       MOSUNNY   72  54  53 W15G22    29.94F
HIBBING        PTSUNNY   65  55  70 NW14      29.89R
ALEXANDRIA     CLOUDY    66  58  75 W8        29.99S
SAINT CLOUD    MOSUNNY   75  56  51 W14G21    29.95F
MINNEAPOLIS    PTSUNNY   76  57  51 NW14      29.96S
$$

  *****  WEATHER ACROSS SOUTH DAKOTA  *****

CITY           SKY/WX    TMP DP  RH WIND       PRES   REMARKS
SIOUX FALLS    MOSUNNY   77  52  41 NW8       30.04F
BROOKINGS      SUNNY     74  49  41 NW12G21   30.03F
WATERTOWN      SUNNY     77  49  37 NW14      30.02F
HURON          SUNNY     77  50  38 W5        30.03S
SISSETON         N/A     79  43  27 NW18G31   29.97S
ABERDEEN       MOSUNNY   79  46  31 W8        30.00F
MITCHELL       SUNNY     78  49  35 CALM      30.04F
PIERRE         SUNNY     76  47  35 VRB5      30.02F
MOBRIDGE       SUNNY     77  50  38 S7        30.00F
RAPID CITY     MOSUNNY   74  50  42 SE13      30.04F
$$

  *****  SOME WEATHER IN NEARBY STATES *****

CITY           SKY/WX    TMP DP  RH WIND       PRES   REMARKS
GLASGOW MT     SUNNY     71  36  27 W10       29.95F
GREAT FALLS MT MOSUNNY   70  33  25 SW16      29.96F
CHEYENNE WY    CLOUDY    70  36  28 W12       30.15F
SCOTTSBLUFF NE SUNNY     76  42  29 S7        30.07F
OMAHA NE       MOSUNNY   83  56  39 W7        30.04F
DES MOINES IA  MOSUNNY   82  53  36 W9        30.05F
DAVENPORT IA   MOSUNNY   79  57  46 W12G20    30.04F
CHICAGO IL     MOSUNNY   78  60  53 W14G21    30.00F
EAU CLAIRE WI  MOSUNNY   75  59  57 W16       29.92F
LA CROSSE WI   MOSUNNY   80  57  45 NW16G22   29.95S
$$

  *****  SOME NATIONAL WEATHER *****

CITY           SKY/WX    TMP DP  RH WIND       PRES   REMARKS
LA GUARDIA NY  PTSUNNY   81  70  69 S15       30.08F
RALEIGH NC     CLOUDY    74  71  91 VRB6      30.03F
ATLANTA GA     PTSUNNY   88  58  36 N13       30.07F
NEW ORLEANS LA PTSUNNY   88  66  48 N10       30.08F HX  90
OKLAHOMA CITY  MOSUNNY   87  56  34 VRB3      30.07F
ALBUQUERQUE NM MOSUNNY   83  14   7 S22G30    30.12F
SALT LAKE CITY PTSUNNY   78  40  25 N9        30.03F
LOS ANGELES CA MOSUNNY   67  53  61 W10       30.01F
BOISE ID       SUNNY     78  28  16 W6        29.97F
SEATTLE WA     CLOUDY    57  47  69 N14       30.17R
$$

*** WEATHER ACROSS MANITOBA...SASKATCHEWAN AND ONTARIO ***
                ***ONTARIO***

CITY           SKY/WX    TMP DP  RH WIND       PRES   REMARKS
GERALDTON      DRZL/FOG  57  55  94 N6        29.73S VSB 1
THUNDER BAY    CLOUDY    63  59  88 NE5       29.74S
SIOUX LOOKOUT  DRIZZLE   55  54  94 NW7       29.80R FOG
TORONTO        CLOUDY    84  63  48 SW20      29.96F
BIG TROUT LK   LGT RAIN  45  41  87 NE10G22   29.92F
PICKLE LAKE    CLOUDY    50  45  81 NE3       29.80R
DRYDEN         LGT RAIN  57  54  88 W9        29.82R FOG
KENORA         DRIZZLE   57  54  88 W10       29.86S
$$
                *** MANITOBA***

CITY           SKY/WX    TMP DP  RH WIND       PRES   REMARKS
BRANDON        PTSUNNY   70  52  52 W12G18    29.91F
DAUPHIN        TSTM      61  52  72 W22G30    29.90R
ISLAND LAKE    LGT RAIN  57  52  82 NE6       29.91F
PILOT MOUND      N/A     66  52  59 NW6         N/A
THE PAS        CLOUDY    50  45  81 N5        29.93S
THOMPSON       LGT RAIN  48  46  93 NE9       29.97S
WINNIPEG       PTSUNNY   66  54  63 NW16      29.90S
LYNN LAKE      LGT RAIN  48  45  87 E9        29.98F
CHURCHILL      PTSUNNY   32  28  86 E16       30.19F WCI  21
GILLAM         LGT RAIN  46  39  76 NE9G17    30.04F
$$
                ***SASKATCHEWAN***

CITY           SKY/WX    TMP DP  RH WIND       PRES   REMARKS
ESTEVAN        MOSUNNY   72  43  35 W13G22    29.94F
KINDERSLEY     MOSUNNY   66  36  32 SW3       29.86S
LLOYDMINSTER   PTSUNNY   61  48  63 N7        29.88R
PRINCE ALBERT  CLOUDY    55  50  82 E7        29.88S
REGINA         PTSUNNY   70  39  32 SW16G28   29.90F
YORKTON        PTSUNNY   66  48  52 W8        29.88S
N. BATTLEFORD  MOSUNNY   64  48  55 VRB9      29.89S
LA RONGE       PTSUNNY   54  43  66 SE9       29.94S
SASKATOON      MOSUNNY   68  45  42 W9        29.88S
SWIFT CURRENT  SUNNY     66  41  39 W18G25    29.90S
$$
NOTE: THESE ARE AUTOMATED STATIONS WITH LIMITED QUALITY CONTROL
      "FAIR" INDICATES FEW OR NO CLOUDS BELOW 12,000 FEET WITH NO
      SIGNIFICANT WEATHER AND/OR OBSTRUCTIONS TO VISIBILITY.
      SKY/WX - SKY CONDITION AND SIGNIFICANT WEATHER.
      TMP - AIR TEMPERATURE.    DP   - DEWPOINT TEMPERATURE.
      RH  - RELATIVE HUMIDITY.  PRES - PRESSURE.
      HX  - HEAT INDEX.         WCI  - WIND CHILL INDEX.
$




USA.gov is the U.S. government's official web portal to all federal, state and local government web resources and services.